This demonstration page uses our WeatherBlox Daily Observations layout. Learn more.

Left ArrowRight Arrow

39.92423, -83.80882

Hourly Observations for August 26, 2019

Temp ( °F °C ) Dew Point ( °F °C ) Humidity (%) Winds ( mph kmh ) Pressure ( in mb ) Visibility ( mi km ) Precip ( " mm )
12:56 am 00:56 Clear 62 16.7 57 13.9 84 84 E 9 15 30.04 1017 10 16.0934 N/A
1:56 am 01:56 Mostly Cloudy 64 17.8 57 13.9 78 78 ESE 10 17 30.02 1017 10 16.0934 N/A
2:56 am 02:56 Mostly Cloudy 63 17.2 58 14.4 84 84 ESE 10 17 30.01 1016 10 16.0934 N/A
3:56 am 03:56 Partly Cloudy 63 17.2 58 14.4 84 84 ESE 12 19 30 1016 10 16.0934 N/A
4:56 am 04:56 Cloudy with Light Rain 64 17.8 59 15 84 84 SE 12 19 29.99 1016 10 16.0934 0.001 0.001
5:37 am 05:37 Cloudy 63 17 61 16 94 94 ESE 10 17 29.99 1016 10 16.0934 0.001 0.001
5:56 am 05:56 Cloudy 63 17.2 60 15.6 90 90 SE 6 9 29.99 1016 10 16.0934 0.001 0.001
6:56 am 06:56 Cloudy 63 17.2 60 15.6 90 90 SE 8 13 29.99 1016 10 16.0934 0.01 0.254
7:56 am 07:56 Cloudy 64 17.8 60 15.6 87 87 SE 10 17 30 1016 10 16.0934 N/A
8:56 am 08:56 Cloudy 64 17.8 61 16.1 90 90 SE 10 17 30.01 1016 10 16.0934 N/A
9:56 am 09:56 Cloudy with Light Rain 64 17.8 61 16.1 90 90 SE 12 19 30.01 1016 10 16.0934 0.01 0.254
10:26 am 10:26 Cloudy with Rain 63 17 63 17 100 100 SE 15 24 29.99 1016 9 14.48406 0.001 0.001
10:36 am 10:36 Cloudy with Light Rain 63 17 63 17 100 100 SE 12 19 29.99 1016 7 11.26538 0.001 0.001
10:42 am 10:42 Cloudy with Light Rain 63 17 63 17 100 100 SE 10 17 29.99 1016 10 16.0934 0.001 0.001
10:56 am 10:56 Cloudy with Light Rain 62 16.7 62 16.7 100 100 SE 13 20 30.01 1016 10 16.0934 0.001 0.001
11:54 am 11:54 Cloudy with Rain 63 17 63 17 100 100 SE 12 19 29.99 1016 5 8.0467 N/A
11:56 am 11:56 Cloudy with Rain 62 16.7 62 16.7 100 100 SE 10 17 30 1016 5 8.0467 N/A
12:56 pm 12:56 Cloudy with Light Rain 64 17.8 64 17.8 100 100 SE 10 17 29.99 1016 8 12.87472 N/A
1:56 pm 13:56 Cloudy with Light Rain 66 18.9 66 18.9 100 100 SE 10 17 29.98 1015 10 16.0934 0.04 1.016
2:56 pm 14:56 Cloudy with Light Rain 67 19.4 67 19.4 100 100 SSE 10 17 29.97 1015 10 16.0934 0.05 1.27
3:05 pm 15:05 Cloudy with Light Rain 66 19 66 19 100 100 SSE 9 15 29.95 1014 10 16.0934 0.001 0.001
3:56 pm 15:56 Cloudy with Rain 67 19.4 67 19.4 100 100 SSE 12 19 29.95 1014 7 11.26538 0.04 1.016
4:56 pm 16:56 Cloudy with Light Rain 67 19.4 67 19.4 100 100 SSE 10 17 29.93 1014 10 16.0934 0.02 0.508
5:56 pm 17:56 Cloudy with Rain 67 19.4 67 19.4 100 100 SSE 14 22 29.93 1013 4 6.43736 0.02 0.508
6:56 pm 18:56 Cloudy with Light Rain 67 19.4 67 19.4 100 100 SE 9 15 29.91 1013 10 16.0934 0.03 0.762
7:56 pm 19:56 Cloudy with Light Rain 67 19.4 67 19.4 100 100 SSE 13 20 29.9 1013 10 16.0934 0.04 1.016
8:56 pm 20:56 Cloudy with Light Rain 67 19.4 67 19.4 100 100 SSE 12 19 29.91 1013 6 9.65604 0.03 0.762
9:47 pm 21:47 Cloudy with Light Rain 66 19 66 19 100 100 S 12 19 29.89 1012 9 14.48406 0.02 0.508
9:56 pm 21:56 Cloudy 67 19.4 67 19.4 100 100 S 9 15 29.91 1013 10 16.0934 0.02 0.508
10:54 pm 22:54 Cloudy with Light Rain 66 19 66 19 100 100 S 8 13 29.9 1012 2.5 4.02335 0.02 0.508
10:56 pm 22:56 Cloudy with Light Rain 67 19.4 67 19.4 100 100 S 7 11 29.92 1013 2 3.21868 0.02 0.508
11:56 pm 23:56 Cloudy with Light Rain 67 19.4 67 19.4 100 100 S 8 13 29.91 1013 2.5 4.02335 0.02 0.508

Powered by AerisWeather